Location: Betzi
(47.2343°N, 9.5260°E)
Time: 22:15:23
(UTC+00:00)

GP-B - Pass Details

Date: 27 May 2022
Orbit: 630 x 634 km, 89.8° (Epoch: 29 June)

Event Time Altitude Azimuth Distance (km) Brightness Sun altitude
Rises 01:11:45 0° 352° (N) 2,940 7.5 -16.9°
Reaches altitude 10° 01:14:10 10° 342° (NNW) 2,026 6.3 -16.8°
Maximum altitude 01:18:04 31° 281° (W) 1,124 4.2 -16.4°
Enters shadow 01:19:39 24° 244° (WSW) 1,316 4.3 -16.3°
